Location: Newark
(38.7000°N, 115.1000°W)
Time: 17:26:35
(UTC+00:00)

LightSail 2 - Visible Passes

Search period start: 21 January 2020 00:00
Search period end: 31 January 2020 00:00
Orbit: 704 x 720 km, 24.0° (Epoch: 20 January)

Date Brightness Start Highest point End Pass type
(mag) Time Alt. Az. Time Alt. Az. Time Alt. Az.
21 Jan 7.2 02:53:40 10° SSW 02:56:37 15° S 02:57:28 15° SSE visible
22 Jan 7.4 01:55:37 10° SSW 01:58:24 15° S 02:01:11 10° SE visible
22 Jan 7.6 03:40:22 10° SW 03:41:40 13° SSW 03:41:40 13° SSW visible
23 Jan 7.3 02:41:57 10° SW 02:44:53 15° S 02:46:57 12° SSE visible
24 Jan 7.5 01:43:42 10° SW 01:46:40 15° S 01:49:38 10° SE visible
24 Jan 7.6 03:29:22 10° SW 03:31:13 12° SSW 03:31:13 12° SSW visible
25 Jan 7.5 02:30:36 10° SW 02:33:07 14° S 02:35:39 10° SSE visible
26 Jan 7.6 01:32:05 10° SW 01:34:54 15° S 01:37:43 10° SSE visible
27 Jan 7.7 02:19:55 10° SSW 02:21:19 11° SSW 02:22:43 10° S visible
28 Jan 7.7 01:20:52 10° SW 01:23:05 13° S 01:25:20 10° SSE visible
